sat.trackr.live / text

‹ back to catalog

HAWK-6B

NORAD 55324 · 2023-011A

PAYLOAD ACTIVE UNKNOWN

§ Identity

Operator
Country
US
Launch date
2023-01-24
Launch site
WLPIS
Launch vehicle
Mass (kg)
RCS (m²)

Purposes: tech_demo

External: N2YO · Heavens-Above · Gunter

§ Orbital elements

Epoch: 2026-05-25T05:30:51.703776Z

Period
94.57 min
Inclination
40.4976°
Eccentricity
0.0004529
Mean motion
15.22696894 rev/d
Perigee alt
494.6 km
Apogee alt
500.8 km
Semi-major
6,875.8 km
B*
1.8691e-4
RAAN
125.9512°
Arg perigee
244.0665°
Mean anomaly
115.9678°
Rev number
18,434

§ Raw data

HAWK-6B1 55324U 23011A   26145.22976509  .00004255  00000+0  18691-3 0  99972 55324  40.4976 125.9512 0004529 244.0665 115.9678 15.22696894184342

JSON: /api/v1/satellites/55324 · /tle

For live sub-satellite position, see the globe view (requires WebGL).

§ Visibility from observer

Set your observer location to see the next 7 days of passes ≥ 10°. The values pass through the URL so the page stays shareable.

No JS? Fill the form by hand. The geolocation button needs JavaScript.